(15917) Rosahavel = 1997 UX7 = 1969 UP2

Discovered at Ondrejov on 1997-10-28 by L. Sarounova.
(15917) Rosahavel = 1997 UX7

Josef Havel (1930-2008) was a significant personality in Czech rose breeding. A diligent and modest man, he detected and preserved several color mutations and obtained numerous awards in international rose contests, including the gold medal in Rome for Nette Ingeborg. [Ref: Minor Planet Circ. 65711]

Orbit

Orbit type: Main Belt

Note: WebGL enabled browser required.

epoch2024-03-31.0
epoch JD2460400.5
perihelion date2021-08-18.18275
perihelion JD2459444.68275
argument of perihelion (°)223.16413
ascending node (°)225.90653
inclination (°)7.09624
eccentricity0.1987895
perihelion distance (AU)2.2358754
Tisserand w.r.t. Jupiter3.3
ΔV w.r.t. Earth (km/sec)9.7
semimajor axis (AU)2.7906218
mean anomaly (°)202.08182
mean daily motion (°/day)0.21142310
aphelion distance (AU)3.345
period (years)4.66
P-vector [x]0.01998280
P-vector [y]0.94763221
P-vector [z]0.31873795
Q-vector [x]-0.99585573
Q-vector [y]0.04715657
Q-vector [z]-0.07776641
absolute magnitude13.72
phase slope0.15
uncertainty0
referenceMPEC 2024-D136
observations used2972
oppositions22
arc length (days)19686
first opposition used1969
last opposition used2023
residual rms (arc-secs)0.58
perturbers coarse indicatorM-v
perturbers precise indicator003Ek
first observation date used1969-10-18.0
last observation date used2023-09-11.0
computer nameMPCLINUX
JD of orbit computation2456966.934188
perihelion JD uncertainty (days)6.7103E-05
argument of perihelion uncertainty (°)3.7154E-05
ascending node uncertainty (°)3.4406E-05
inclination uncertainty (°)5.1536E-06
eccentricity uncertainty 3.6217E-08
perihelion distance uncertainty (AU)1.0162E-07
Minimum Orbit Intersection Distances (in AU)
for orbit epoch: 2460400.5, reference: E2024-GD4
Mercury1.93209
Venus1.52065
Earth1.25864
Mars0.69032
Jupiter1.92061
Saturn6.75078
Uranus15.6498
Neptune27.0299

Observations

3009 total observations over interval: 1969 10 18.01348 – 2023 09 11.260878
These data are available for download (format description).

Date (UT) J2000 RA J2000 Dec Magn Location Ref
1969 10 18.01348 02 51 02.81 +18 33 30.9 16.5   095 – Crimea-Nauchnyi MPC 3133
1969 11 05.85391 02 36 29.51 +16 19 12.8 16.5   095 – Crimea-Nauchnyi MPC 3134
1971 04 16.18087 11 58 15.13 -06 48 54.5 19.0   675 – Palomar Mountain MPS 290
1971 04 16.26458 11 58 12.20 -06 48 16.9 19.0   675 – Palomar Mountain MPS 290
1971 05 13.18941 11 50 52.35 -04 25 50.0 19.0   675 – Palomar Mountain MPS 290
1971 05 14.21962 11 50 54.59 -04 22 29.7 19.0   675 – Palomar Mountain MPS 290
1997 10 22.13452 02 26 24.67 +16 55 32.9   704 – Lincoln Laboratory ETS, New Mexico MPS 133
1997 10 22.14595 02 26 24.16 +16 55 27.4   704 – Lincoln Laboratory ETS, New Mexico MPS 133
1997 10 22.15731 02 26 23.58 +16 55 22.4   704 – Lincoln Laboratory ETS, New Mexico MPS 133
1997 10 22.16862 02 26 23.04 +16 55 17.4   704 – Lincoln Laboratory ETS, New Mexico MPS 133
1997 10 22.17993 02 26 22.43 +16 55 12.9   704 – Lincoln Laboratory ETS, New Mexico MPS 133
1997 10 24.15107 02 24 49.58 +16 40 59.6 18.8   704 – Lincoln Laboratory ETS, New Mexico MPS 133
1997 10 24.16241 02 24 49.07 +16 40 55.1 18.6   704 – Lincoln Laboratory ETS, New Mexico MPS 133
1997 10 24.18512 02 24 47.96 +16 40 46.4   704 – Lincoln Laboratory ETS, New Mexico MPS 133
1997 10 24.19661 02 24 47.32 +16 40 40.0   704 – Lincoln Laboratory ETS, New Mexico MPS 133
1997 10 28.08338 02 21 38.10 +16 11 32.6 16.6 V 557 – Ondrejov MPS 133
1997 10 28.09748 02 21 37.40 +16 11 26.0   557 – Ondrejov MPS 133
1997 10 29.03566 02 20 51.16 +16 04 13.2 16.4 V 557 – Ondrejov MPS 133
1997 10 29.05300 02 20 50.28 +16 04 05.1   557 – Ondrejov MPS 133
1997 10 30.92926 02 19 17.44 +15 49 29.3   557 – Ondrejov MPS 133
1997 10 30.95611 02 19 16.07 +15 49 16.8   557 – Ondrejov MPS 133
1997 10 31.80455 02 18 34.20 +15 42 36.7 16.3 V 557 – Ondrejov MPS 133
1997 11 03.32877 02 16 29.10 +15 22 39.6   704 – Lincoln Laboratory ETS, New Mexico MPS 203
1997 11 03.34514 02 16 28.30 +15 22 32.3   704 – Lincoln Laboratory ETS, New Mexico MPS 203
1997 11 03.36160 02 16 27.45 +15 22 24.2   704 – Lincoln Laboratory ETS, New Mexico MPS 203
1997 11 03.37791 02 16 26.60 +15 22 15.8   704 – Lincoln Laboratory ETS, New Mexico MPS 203
1997 11 03.39548 02 16 25.66 +15 22 07.5   704 – Lincoln Laboratory ETS, New Mexico MPS 203
1997 11 03.96034 02 15 58.11 +15 17 36.0 16.6 V 557 – Ondrejov MPS 133
1997 11 03.97174 02 15 57.53 +15 17 30.6   557 – Ondrejov MPS 133
1997 11 06.65534 02 13 47.19 +14 56 10.0 16.3 V 385 – Nihondaira Observatory MPS 133
1997 11 06.68830 02 13 45.54 +14 55 54.0   385 – Nihondaira Observatory MPS 133
1997 11 10.45786 02 10 49.54 +14 26 04.7   385 – Nihondaira Observatory MPS 133
1997 11 10.46683 02 10 49.18 +14 26 00.4   385 – Nihondaira Observatory MPS 133
1997 11 10.93450 02 10 27.68 +14 22 19.0   557 – Ondrejov MPS 203
1997 11 10.95465 02 10 26.73 +14 22 09.7   557 – Ondrejov MPS 203
1997 11 20.02169 02 04 17.50 +13 14 17.3   557 – Ondrejov MPS 203
1997 11 20.03566 02 04 16.98 +13 14 11.2   557 – Ondrejov MPS 203
1997 11 20.23570 02 04 10.09 +13 12 49.1 16.7 V 691 – Steward Observatory, Kitt Peak-Spacewatch MPS 80722
1997 11 20.25838 02 04 09.23 +13 12 39.5 16.9 V 691 – Steward Observatory, Kitt Peak-Spacewatch MPS 80722
1997 11 20.29606 02 04 07.83 +13 12 23.7 17.1 V 691 – Steward Observatory, Kitt Peak-Spacewatch MPS 80722
1997 11 30.35296 01 59 27.44 +12 09 13.6 17.8 V 566 – Haleakala-NEAT/GEODSS MPS 203
1997 11 30.36260 01 59 27.23 +12 09 10.3 17.8 V 566 – Haleakala-NEAT/GEODSS MPS 203
1997 11 30.37266 01 59 26.98 +12 09 07.2 17.7 V 566 – Haleakala-NEAT/GEODSS MPS 203
1997 12 16.87525 01 57 55.62 +11 05 00.9   557 – Ondrejov MPS 290
1997 12 16.89406 01 57 55.82 +11 04 58.5   557 – Ondrejov MPS 290
1997 12 16.91441 01 57 55.97 +11 04 55.4   557 – Ondrejov MPS 290
1998 01 14.78536 02 13 38.85 +11 15 51.2   557 – Ondrejov MPS 405
1998 01 14.78734 02 13 38.96 +11 15 51.6   557 – Ondrejov MPS 405
1998 01 14.79598 02 13 39.42 +11 15 53.0   557 – Ondrejov MPS 405
1998 01 14.80069 02 13 39.66 +11 15 53.8   557 – Ondrejov MPS 405
1998 11 24.21475 11 37 16.72 -04 12 08.8   557 – Ondrejov MPS 3015
1998 11 24.21851 11 37 17.04 -04 12 10.7   557 – Ondrejov MPS 3015
1999 01 31.36973 12 29 12.390 -11 24 38.22 16.70 J I02 – Cerro Tololo Observatory, La Serena--2MASS MPS 80722
1999 02 21.08251 12 25 00.92 -11 18 25.6   557 – Ondrejov MPS 3806
1999 02 21.08484 12 25 00.84 -11 18 24.4   557 – Ondrejov MPS 3806
1999 02 21.08716 12 25 00.73 -11 18 24.2   557 – Ondrejov MPS 3806
1999 02 23.32344 12 23 56.50 -11 12 27.0 18.2   704 – Lincoln Laboratory ETS, New Mexico MPS 4125
1999 02 23.33343 12 23 56.35 -11 12 22.5 18.2   704 – Lincoln Laboratory ETS, New Mexico MPS 4125
1999 02 23.34398 12 23 55.76 -11 12 23.5 18.4   704 – Lincoln Laboratory ETS, New Mexico MPS 4125
1999 02 23.35464 12 23 55.46 -11 12 20.1 18.4   704 – Lincoln Laboratory ETS, New Mexico MPS 4125
1999 02 23.36502 12 23 55.12 -11 12 19.2 18.4   704 – Lincoln Laboratory ETS, New Mexico MPS 4125
1999 03 14.02122 12 11 30.55 -09 45 14.3   557 – Ondrejov MPS 4125
1999 03 14.02587 12 11 30.30 -09 45 12.0   557 – Ondrejov MPS 4125
1999 03 14.03517 12 11 29.89 -09 45 08.0   557 – Ondrejov MPS 4125
1999 03 20.29390 12 06 30.52 -09 03 37.8 17.7   704 – Lincoln Laboratory ETS, New Mexico MPS 4125
1999 03 20.31210 12 06 29.66 -09 03 30.1   704 – Lincoln Laboratory ETS, New Mexico MPS 4125
1999 03 20.33034 12 06 28.70 -09 03 22.2   704 – Lincoln Laboratory ETS, New Mexico MPS 4125
1999 03 20.34856 12 06 27.80 -09 03 14.5 18.0   704 – Lincoln Laboratory ETS, New Mexico MPS 4125
1999 03 20.36661 12 06 26.87 -09 03 07.5 18.0   704 – Lincoln Laboratory ETS, New Mexico MPS 4125
1999 03 23.32636 12 04 03.98 -08 42 04.7 18.2   704 – Lincoln Laboratory ETS, New Mexico MPS 4125
1999 03 23.34106 12 04 03.23 -08 41 58.0 18.2   704 – Lincoln Laboratory ETS, New Mexico MPS 4125
1999 03 23.35580 12 04 02.52 -08 41 51.1 18.6   704 – Lincoln Laboratory ETS, New Mexico MPS 4125
1999 03 23.37049 12 04 01.77 -08 41 45.3 18.4   704 – Lincoln Laboratory ETS, New Mexico MPS 4125
1999 03 23.38526 12 04 01.01 -08 41 38.7 18.4   704 – Lincoln Laboratory ETS, New Mexico MPS 4125
1999 03 24.95199 12 02 45.96 -08 30 15.5   557 – Ondrejov MPS 4125
1999 03 24.96410 12 02 45.36 -08 30 10.1 17.2 V 557 – Ondrejov MPS 4125
1999 04 06.24298 11 53 33.24 -06 58 05.7 17.5   704 – Lincoln Laboratory ETS, New Mexico MPS 4466
1999 04 06.25733 11 53 32.59 -06 57 59.3 17.7   704 – Lincoln Laboratory ETS, New Mexico MPS 4466
1999 04 06.27088 11 53 31.98 -06 57 53.9 17.9   704 – Lincoln Laboratory ETS, New Mexico MPS 4466
1999 04 06.28482 11 53 31.41 -06 57 47.0 18.4   704 – Lincoln Laboratory ETS, New Mexico MPS 4466
1999 04 06.30027 11 53 30.75 -06 57 41.0 18.6   704 – Lincoln Laboratory ETS, New Mexico MPS 4466
1999 04 11.13816 11 50 24.35 -06 22 05.0 17.4 R 699 – Lowell Observatory-LONEOS MPS 4466
1999 04 11.16872 11 50 23.16 -06 21 51.3   699 – Lowell Observatory-LONEOS MPS 4466
1999 04 11.19927 11 50 22.03 -06 21 38.6   699 – Lowell Observatory-LONEOS MPS 4466
1999 04 14.32366 11 48 34.30 -05 59 30.1 18.4   704 – Lincoln Laboratory ETS, New Mexico MPS 4466
1999 04 14.34283 11 48 33.64 -05 59 22.0 18.6   704 – Lincoln Laboratory ETS, New Mexico MPS 4466
1999 04 14.35289 11 48 33.21 -05 59 17.4 18.6   704 – Lincoln Laboratory ETS, New Mexico MPS 4466
1999 04 14.36254 11 48 32.84 -05 59 10.2 18.6   704 – Lincoln Laboratory ETS, New Mexico MPS 4466
1999 04 15.13012 11 48 08.53 -05 53 52.3 18.5   704 – Lincoln Laboratory ETS, New Mexico MPS 4466
1999 04 15.14742 11 48 08.06 -05 53 45.2 18.5   704 – Lincoln Laboratory ETS, New Mexico MPS 4466
1999 04 15.16476 11 48 07.45 -05 53 39.6 18.5   704 – Lincoln Laboratory ETS, New Mexico MPS 4466
1999 04 15.18204 11 48 06.85 -05 53 30.7 18.2   704 – Lincoln Laboratory ETS, New Mexico MPS 4466
